Location: Kavul?ru
(16.6288°N, 80.5832°E)
Time: 08:04:28
(UTC+00:00)

SAR-Lupe-1 - Pass Details

Date: 15 May 2026
Orbit: 479 x 484 km, 98.1° (Epoch: 10 January)

Event Time Altitude Azimuth Distance (km) Brightness Sun altitude
Exits shadow 13:52:00 - 169° (S) 2,047 6.9 -12.1°
Reaches altitude 10° 13:52:57 10° 169° (S) 1,643 6.4 -12.3°
Maximum altitude 13:56:28 85° 256° (WSW) 482 4.0 -13.1°
Drops below altitude 10° 14:00:00 10° 347° (NNW) 1,644 7.3 -13.8°
Sets 14:02:04 0° 348° (NNW) 2,521 8.3 -14.3°
